TimeEST,TemperatureF,Dew PointF,Humidity,Sea Level PressureIn,VisibilityMPH,Wind Direction,Wind SpeedMPH,Gust SpeedMPH,PrecipitationIn,Events,Conditions,WindDirDegrees,DateUTC
12:35 AM,37.4,37.4,100,30.16,10.0,Calm,Calm,-,N/A,,Clear,0,2012-11-26 05:35:00
12:55 AM,35.6,35.6,100,30.16,7.0,Calm,Calm,-,N/A,,Clear,0,2012-11-26 05:55:00
1:15 AM,33.8,33.8,100,30.15,10.0,WSW,3.5,-,N/A,,Clear,250,2012-11-26 06:15:00
1:35 AM,33.8,33.8,100,30.15,7.0,Calm,Calm,-,N/A,,Clear,0,2012-11-26 06:35:00
1:55 AM,33.8,33.8,100,30.15,10.0,Calm,Calm,-,N/A,,Clear,0,2012-11-26 06:55:00
2:15 AM,33.8,33.8,100,30.15,10.0,Calm,Calm,-,N/A,,Clear,0,2012-11-26 07:15:00
2:35 AM,32.0,32.0,100,30.16,10.0,Calm,Calm,-,N/A,,Clear,0,2012-11-26 07:35:00
2:55 AM,32.0,32.0,100,30.16,10.0,Calm,Calm,-,N/A,,Clear,0,2012-11-26 07:55:00
3:15 AM,32.0,32.0,100,30.16,3.0,SW,3.5,-,N/A,,Clear,220,2012-11-26 08:15:00
3:35 AM,32.0,32.0,100,30.16,10.0,SW,3.5,-,N/A,,Clear,230,2012-11-26 08:35:00
3:55 AM,32.0,32.0,100,30.16,5.0,SW,3.5,-,N/A,,Clear,230,2012-11-26 08:55:00
4:15 AM,33.8,33.8,100,30.16,3.0,Calm,Calm,-,N/A,,Clear,0,2012-11-26 09:15:00
4:35 AM,32.0,32.0,100,30.17,0.2,Calm,Calm,-,N/A,Fog,Fog,0,2012-11-26 09:35:00
4:55 AM,32.0,32.0,100,30.17,0.2,Calm,Calm,-,N/A,Fog,Fog,0,2012-11-26 09:55:00
5:15 AM,32.0,32.0,100,30.18,0.2,Calm,Calm,-,N/A,Fog,Fog,0,2012-11-26 10:15:00
5:35 AM,32.0,32.0,100,30.18,0.2,Calm,Calm,-,N/A,Fog,Light Freezing Fog,0,2012-11-26 10:35:00
5:55 AM,30.2,30.2,100,30.19,5.0,Calm,Calm,-,N/A,,Clear,0,2012-11-26 10:55:00
6:15 AM,32.0,32.0,100,30.20,0.8,SW,3.5,-,N/A,,Mist,230,2012-11-26 11:15:00
6:35 AM,32.0,32.0,100,30.20,10.0,SW,4.6,-,N/A,,Clear,230,2012-11-26 11:35:00
6:55 AM,32.0,32.0,100,30.21,10.0,SW,3.5,-,N/A,,Clear,230,2012-11-26 11:55:00
7:35 AM,32.0,32.0,100,30.22,10.0,WSW,3.5,-,N/A,,Clear,240,2012-11-26 12:35:00
7:55 AM,35.6,35.6,100,30.22,10.0,Calm,Calm,-,N/A,,Clear,0,2012-11-26 12:55:00
8:35 AM,42.8,42.8,100,30.24,10.0,WSW,4.6,-,N/A,,Clear,250,2012-11-26 13:35:00
8:55 AM,46.4,42.8,87,30.24,10.0,Calm,Calm,-,N/A,,Clear,0,2012-11-26 13:55:00
9:15 AM,48.2,41.0,76,30.25,10.0,WSW,4.6,-,N/A,,Clear,240,2012-11-26 14:15:00
10:15 AM,55.4,35.6,47,30.27,10.0,WSW,5.8,-,N/A,,Clear,250,2012-11-26 15:15:00
10:35 AM,59.0,33.8,39,30.26,10.0,SW,9.2,-,N/A,,Clear,230,2012-11-26 15:35:00
11:15 AM,60.8,32.0,34,30.25,10.0,WSW,6.9,-,N/A,,Clear,240,2012-11-26 16:15:00
11:35 AM,62.6,32.0,32,30.24,10.0,SW,6.9,-,N/A,,Clear,220,2012-11-26 16:35:00
11:55 AM,62.6,30.2,30,30.23,10.0,SW,5.8,-,N/A,,Clear,230,2012-11-26 16:55:00
12:15 PM,64.4,30.2,28,30.22,10.0,West,3.5,-,N/A,,Clear,280,2012-11-26 17:15:00
12:35 PM,64.4,30.2,28,30.21,10.0,WSW,4.6,-,N/A,,Clear,240,2012-11-26 17:35:00
12:55 PM,66.2,30.2,26,30.20,10.0,South,6.9,-,N/A,,Clear,190,2012-11-26 17:55:00
1:15 PM,66.2,30.2,26,30.20,10.0,SW,4.6,-,N/A,,Clear,220,2012-11-26 18:15:00
1:35 PM,66.2,32.0,28,30.19,10.0,SW,6.9,-,N/A,,Clear,230,2012-11-26 18:35:00
2:15 PM,68.0,32.0,26,30.19,10.0,SSW,5.8,-,N/A,,Clear,200,2012-11-26 19:15:00
2:35 PM,68.0,30.2,24,30.18,10.0,SW,5.8,-,N/A,,Clear,230,2012-11-26 19:35:00
3:15 PM,64.4,37.4,37,30.18,10.0,SSE,8.1,-,N/A,,Clear,160,2012-11-26 20:15:00
3:35 PM,64.4,37.4,37,30.19,10.0,South,4.6,-,N/A,,Clear,190,2012-11-26 20:35:00
3:55 PM,64.4,35.6,34,30.19,10.0,SSW,6.9,-,N/A,,Clear,200,2012-11-26 20:55:00
4:15 PM,62.6,37.4,39,30.19,10.0,South,4.6,-,N/A,,Clear,170,2012-11-26 21:15:00
4:35 PM,60.8,37.4,42,30.19,10.0,SSE,4.6,-,N/A,,Clear,160,2012-11-26 21:35:00
4:55 PM,57.2,37.4,48,30.19,10.0,South,4.6,-,N/A,,Clear,190,2012-11-26 21:55:00
5:15 PM,53.6,37.4,54,30.19,10.0,SSW,3.5,-,N/A,,Clear,200,2012-11-26 22:15:00
5:35 PM,51.8,41.0,67,30.20,10.0,SSW,4.6,-,N/A,,Clear,210,2012-11-26 22:35:00
5:55 PM,50.0,39.2,66,30.20,10.0,SSW,3.5,-,N/A,,Clear,210,2012-11-26 22:55:00
6:15 PM,48.2,37.4,66,30.21,10.0,Calm,Calm,-,N/A,,Clear,0,2012-11-26 23:15:00
6:35 PM,50.0,37.4,62,30.21,10.0,Calm,Calm,-,N/A,,Clear,0,2012-11-26 23:35:00
6:55 PM,50.0,37.4,62,30.21,10.0,Calm,Calm,-,N/A,,Clear,0,2012-11-26 23:55:00
7:15 PM,46.4,37.4,71,30.21,10.0,SW,3.5,-,N/A,,Clear,230,2012-11-27 00:15:00
7:35 PM,44.6,37.4,76,30.22,10.0,SW,3.5,-,N/A,,Clear,220,2012-11-27 00:35:00
7:55 PM,42.8,37.4,81,30.22,10.0,SW,3.5,-,N/A,,Clear,220,2012-11-27 00:55:00
8:15 PM,42.8,35.6,76,30.22,10.0,SW,3.5,-,N/A,,Clear,230,2012-11-27 01:15:00
8:35 PM,41.0,37.4,87,30.23,10.0,SSW,3.5,-,N/A,,Clear,210,2012-11-27 01:35:00
8:55 PM,41.0,37.4,87,30.23,10.0,SW,3.5,-,N/A,,Clear,220,2012-11-27 01:55:00
9:15 PM,41.0,35.6,81,30.23,10.0,SW,3.5,-,N/A,,Clear,220,2012-11-27 02:15:00
9:35 PM,42.8,37.4,81,30.23,10.0,SW,4.6,-,N/A,,Clear,220,2012-11-27 02:35:00
9:55 PM,41.0,35.6,81,30.22,10.0,SW,3.5,-,N/A,,Clear,220,2012-11-27 02:55:00
10:15 PM,37.4,35.6,93,30.22,10.0,SW,4.6,-,N/A,,Clear,220,2012-11-27 03:15:00
10:35 PM,41.0,35.6,81,30.22,10.0,SSW,4.6,-,N/A,,Clear,210,2012-11-27 03:35:00
10:55 PM,42.8,37.4,81,30.22,10.0,SSW,3.5,-,N/A,,Clear,200,2012-11-27 03:55:00
11:15 PM,42.8,37.4,81,30.21,10.0,Calm,Calm,-,N/A,,Clear,0,2012-11-27 04:15:00
11:35 PM,42.8,37.4,81,30.21,10.0,SW,3.5,-,N/A,,Clear,220,2012-11-27 04:35:00
11:55 PM,37.4,37.4,100,30.21,10.0,SW,3.5,-,N/A,,Clear,230,2012-11-27 04:55:00